Location: York
(31.8935°S, 116.7682°E)
Time: 10:58:25
(UTC+08:00)

Transit 2A - Visible Passes

Search period start: 13 June 2021 00:00
Search period end: 23 June 2021 00:00
Orbit: 601 x 957 km, 66.7° (Epoch: 12 June)

Date Brightness Start Highest point End Pass type
(mag) Time Alt. Az. Time Alt. Az. Time Alt. Az.
13 Jun 8.6 04:39:35 10° NNE 04:44:19 24° ENE 04:49:12 10° SE visible
13 Jun 6.7 06:21:12 10° NW 06:27:10 49° WSW 06:33:22 10° SSE visible
14 Jun 9.1 04:06:56 10° NE 04:10:23 15° ENE 04:13:53 10° ESE visible
14 Jun 6.4 05:46:45 10° NNW 05:52:55 70° WSW 05:59:20 10° SSE visible
15 Jun 6.5 05:12:32 10° NNW 05:18:43 82° ENE 05:25:09 10° SSE visible
16 Jun 7.0 04:38:35 10° N 04:44:36 56° ENE 04:50:50 10° SE visible
16 Jun 7.5 06:23:21 10° WNW 06:28:12 23° SW 06:33:09 10° S visible
17 Jun 7.6 04:09:42 36° NE 04:10:31 38° ENE 04:16:21 10° SE visible
17 Jun 7.1 05:50:25 20° WNW 05:53:47 32° WSW 05:59:26 10° S visible
18 Jun 8.6 03:39:03 20° ESE 03:39:03 20° ESE 03:41:36 10° SE visible
18 Jun 6.7 05:19:40 45° SW 05:19:40 45° SW 05:25:34 10° SSE visible
19 Jun 7.5 04:48:04 34° S 04:48:04 34° S 04:51:33 10° SSE visible
19 Jun 8.2 06:28:39 10° SW 06:29:36 11° SW 06:30:49 10° SW visible
20 Jun 8.5 04:15:59 18° SSE 04:15:59 18° SSE 04:17:24 10° SSE visible
20 Jun 8.1 05:56:33 14° SSW 05:56:33 14° SSW 05:58:35 10° SSW visible
21 Jun 8.3 05:24:09 14° SSW 05:24:09 14° SSW 05:25:16 10° S visible
22 Jun 8.7 04:51:34 10° S 04:51:34 10° S 04:51:36 10° S visible
